Weather reports worldwide

Advertisment
Honolulu HI/Oahu, United States of America (91182): temperature & dewpoint: 10.07.2019 19:00:00 - 16.07.2019 19:00:00 (HST)Honolulu HI/Oahu, United States of America (91182): wind speed & gusts: 10.07.2019 19:00:00 - 16.07.2019 19:00:00 (HST)Honolulu HI/Oahu, United States of America (91182): wind direction: 10.07.2019 19:00:00 - 16.07.2019 19:00:00 (HST)Honolulu HI/Oahu, United States of America (91182): reduced air pressure: 10.07.2019 19:00:00 - 16.07.2019 19:00:00 (HST)Honolulu HI/Oahu, United States of America (91182): visibility: 10.07.2019 19:00:00 - 16.07.2019 19:00:00 (HST)Honolulu HI/Oahu, United States of America (91182): precipitation: 10.07.2019 19:00:00 - 16.07.2019 19:00:00 (HST)
Date & Time tt [°C] td [°C] ff [km/h] ff [kn] fx [km/h] fx [kn] dd ppp [hPa] vv [km] rr [mm]
16.07.2019 19:00:00 28,3 20,6 22 12 - - NE 1013,8 16 -
16.07.2019 18:00:00 30,0 20,6 26 14 - - E 1013,4 16 -
16.07.2019 17:00:00 31,1 20,0 22 12 - - NE 1013,1 16 -
16.07.2019 16:00:00 31,7 20,0 31 17 - - ENE 1013,5 16 -
16.07.2019 15:00:00 31,7 20,0 34 18 50 27 ENE 1014,1 16 -
16.07.2019 14:00:00 32,2 19,4 34 18 - - E 1014,3 16 0,0
16.07.2019 13:00:00 32,2 18,3 24 13 - - NNE 1014,5 16 -
16.07.2019 12:00:00 32,2 17,8 21 11 - - ENE 1014,8 16 -
16.07.2019 11:00:00 31,7 20,0 21 11 - - ENE 1015,3 16 -
16.07.2019 10:00:00 30,6 20,0 21 11 - - NE 1015,4 16 -
16.07.2019 09:00:00 29,4 20,0 16 9 - - ENE 1015,3 16 -
16.07.2019 08:00:00 28,3 21,1 21 11 - - NE 1015,2 16 0,0
16.07.2019 07:00:00 27,2 21,1 18 10 - - ENE 1015,1 16 -
16.07.2019 06:00:00 26,1 20,6 11 6 - - ENE 1014,4 16 -
16.07.2019 05:00:00 26,7 20,6 15 8 - - ENE 1013,9 10 -
16.07.2019 04:00:00 26,7 20,6 15 8 - - E 1013,9 16 -
16.07.2019 03:00:00 26,7 20,6 13 7 - - ENE 1014,0 16 -
16.07.2019 02:00:00 27,2 20,6 15 8 - - ENE 1014,2 16 0,0
16.07.2019 01:00:00 27,2 20,6 16 9 - - ENE 1014,6 16 -
16.07.2019 00:00:00 27,2 20,6 16 9 - - ENE 1015,1 16 -
15.07.2019 23:00:00 27,2 21,1 15 8 - - ENE 1015,2 16 -
15.07.2019 22:00:00 27,8 21,1 24 13 - - ENE 1015,1 16 -
15.07.2019 21:00:00 27,8 21,1 24 13 - - ENE 1014,8 16 -
15.07.2019 20:00:00 27,8 20,6 24 13 - - ENE 1014,2 16 0,0
15.07.2019 19:00:00 28,3 20,6 26 14 - - ENE 1014,0 16 -
15.07.2019 18:00:00 30,0 20,6 24 13 - - ENE 1013,7 16 -
15.07.2019 17:00:00 30,6 20,6 24 13 - - ENE 1013,7 16 -
15.07.2019 16:00:00 31,1 19,4 29 16 - - ENE 1014,0 16 -
15.07.2019 15:00:00 31,7 18,9 29 16 - - E 1014,2 16 -
15.07.2019 14:00:00 32,2 19,4 31 17 - - E 1014,8 16 0,0
15.07.2019 13:00:00 31,7 20,6 21 11 - - ENE 1015,2 16 -
15.07.2019 12:00:00 30,6 20,6 18 10 - - NE 1015,7 16 -
15.07.2019 11:00:00 31,7 20,6 16 9 - - ENE 1016,1 16 -
15.07.2019 10:00:00 30,0 21,1 18 10 - - ENE 1016,4 16 -
15.07.2019 09:00:00 29,4 21,1 22 12 - - E 1016,2 16 -
15.07.2019 08:00:00 27,2 21,1 9 5 - - NE 1016,1 16 0,0
15.07.2019 07:00:00 26,7 21,1 16 9 - - NE 1015,8 16 -
15.07.2019 06:00:00 26,1 21,1 8 4 - - N 1015,3 16 -
15.07.2019 05:00:00 26,1 21,1 5 3 - - NE 1015,0 16 -
15.07.2019 04:00:00 26,7 21,1 9 5 - - E 1015,0 16 -
15.07.2019 03:00:00 26,7 21,1 9 5 - - ENE 1015,0 16 -
15.07.2019 02:00:00 26,7 20,6 24 13 - - ENE 1015,4 16 0,0
15.07.2019 01:00:00 26,7 21,1 15 8 - - ENE 1016,0 16 -
15.07.2019 00:00:00 26,7 21,1 24 13 - - ENE 1016,5 16 -
14.07.2019 23:00:00 27,2 20,6 13 7 - - ENE 1016,4 16 -
14.07.2019 22:00:00 27,8 21,1 26 14 - - ENE 1016,4 16 -
14.07.2019 21:00:00 27,8 20,6 26 14 48 26 ENE 1016,0 16 -
14.07.2019 20:00:00 27,8 20,0 22 12 - - ENE 1015,5 16 0,0
14.07.2019 19:00:00 28,3 19,4 26 14 - - E 1014,8 16 -
14.07.2019 18:00:00 30,0 19,4 21 11 - - ENE 1014,3 16 -
14.07.2019 17:00:00 30,6 19,4 21 11 - - ENE 1014,4 16 -
14.07.2019 16:00:00 31,1 19,4 26 14 50 27 ENE 1014,7 16 -
14.07.2019 15:00:00 31,7 18,9 29 16 - - NE 1015,0 16 -
14.07.2019 14:00:00 32,2 18,9 26 14 48 26 ENE 1015,2 16 0,0
14.07.2019 13:00:00 31,1 18,9 31 17 - - ENE 1015,7 16 -
14.07.2019 12:00:00 31,1 19,4 24 13 - - ENE 1016,2 16 -
14.07.2019 11:00:00 30,6 18,3 22 12 - - NE 1016,6 16 -
14.07.2019 10:00:00 30,0 19,4 31 17 - - ENE 1016,8 16 -
14.07.2019 09:00:00 29,4 20,0 24 13 - - NE 1016,8 16 -
14.07.2019 08:00:00 27,8 20,6 21 11 - - ENE 1016,4 16 0,0
14.07.2019 07:00:00 26,7 20,6 18 10 - - ENE 1015,9 16 -
14.07.2019 06:00:00 26,1 19,4 11 6 - - NE 1015,3 16 -
14.07.2019 05:00:00 26,1 19,4 21 11 - - ENE 1015,1 16 -
14.07.2019 04:00:00 26,1 18,9 15 8 - - ENE 1015,0 16 -
14.07.2019 03:00:00 26,7 20,6 18 10 - - ENE 1015,1 16 -
14.07.2019 02:00:00 26,7 20,0 18 10 - - ENE 1015,4 16 0,0
14.07.2019 01:00:00 26,7 20,0 18 10 - - ENE 1015,7 16 -
14.07.2019 00:00:00 26,7 19,4 15 8 - - ENE 1016,1 16 -
13.07.2019 23:00:00 26,7 19,4 18 10 - - ENE 1016,5 16 -
13.07.2019 22:00:00 27,2 20,0 22 12 - - ENE 1016,3 16 -
13.07.2019 21:00:00 27,2 20,0 18 10 - - ENE 1015,8 16 -
13.07.2019 20:00:00 27,8 20,0 24 13 - - ENE 1015,3 16 0,0
13.07.2019 19:00:00 28,3 20,0 24 13 - - ENE 1014,8 16 -
13.07.2019 18:00:00 29,4 18,9 26 14 - - E 1014,3 16 -
13.07.2019 17:00:00 30,6 18,9 29 16 - - ENE 1014,0 16 -
13.07.2019 16:00:00 31,1 17,8 28 15 - - NE 1014,1 16 -
13.07.2019 15:00:00 31,7 19,4 26 14 - - ENE 1014,4 16 -
13.07.2019 14:00:00 31,7 19,4 26 14 - - ENE 1014,8 16 0,0
13.07.2019 13:00:00 31,7 20,0 28 15 - - ENE 1015,3 16 -
13.07.2019 12:00:00 31,1 20,0 28 15 - - ENE 1015,4 16 -
13.07.2019 11:00:00 30,6 20,6 18 10 - - NE 1015,6 16 -
13.07.2019 10:00:00 29,4 20,6 22 12 - - ENE 1015,8 16 -
13.07.2019 09:00:00 28,9 21,1 22 12 - - ENE 1015,7 16 -
13.07.2019 08:00:00 27,2 20,6 18 10 - - ENE 1015,5 16 -
13.07.2019 07:00:00 26,7 20,6 18 10 - - ENE 1015,3 16 -
13.07.2019 06:00:00 26,1 20,6 18 10 - - ENE 1014,6 16 -
13.07.2019 05:00:00 26,1 20,6 9 5 - - ENE 1014,4 16 0,0
13.07.2019 04:00:00 26,1 20,0 8 4 - - - 1014,2 16 -
13.07.2019 03:00:00 26,7 20,0 18 10 - - ENE 1014,3 16 -
13.07.2019 02:00:00 26,7 20,0 16 9 - - ENE 1014,6 16 0,0
13.07.2019 01:00:00 26,7 20,0 24 13 - - ENE 1015,2 16 -
13.07.2019 00:00:00 27,2 20,0 24 13 - - NE 1015,6 16 -
12.07.2019 23:00:00 27,2 20,0 13 7 - - ENE 1015,8 16 -
12.07.2019 22:00:00 27,2 19,4 24 13 - - ENE 1015,6 16 -
12.07.2019 21:00:00 27,8 20,0 18 10 - - NE 1015,2 16 -
12.07.2019 20:00:00 27,8 19,4 18 10 - - NE 1014,7 16 0,0
12.07.2019 19:00:00 28,3 19,4 18 10 - - NE 1014,1 16 -
12.07.2019 18:00:00 30,0 18,9 24 13 - - NNE 1013,6 16 -
12.07.2019 17:00:00 30,6 18,9 29 16 - - NE 1013,4 16 -
12.07.2019 16:00:00 31,1 18,9 26 14 - - NE 1013,3 16 -
12.07.2019 15:00:00 31,7 19,4 21 11 - - ENE 1013,5 16 -
12.07.2019 14:00:00 31,1 18,9 26 14 - - NNE 1013,8 16 0,0
12.07.2019 13:00:00 31,7 18,3 16 9 - - NE 1014,2 16 -
12.07.2019 12:00:00 31,7 17,8 28 15 - - ENE 1014,7 16 -
12.07.2019 11:00:00 30,6 18,3 28 15 - - ENE 1014,9 16 -
12.07.2019 10:00:00 30,0 18,3 24 13 - - E 1015,3 16 -
12.07.2019 09:00:00 29,4 19,4 24 13 - - ENE 1015,4 16 -
12.07.2019 08:00:00 28,3 20,0 18 10 - - NE 1015,1 16 0,0
12.07.2019 07:00:00 26,7 19,4 24 13 - - E 1015,0 16 -
12.07.2019 06:00:00 26,1 19,4 11 6 - - ENE 1014,8 16 -
12.07.2019 05:00:00 26,1 19,4 11 6 - - E 1014,6 16 -
12.07.2019 04:00:00 26,1 19,4 21 11 - - ENE 1014,8 16 -
12.07.2019 03:00:00 26,7 20,0 16 9 - - E 1015,2 16 -
12.07.2019 02:00:00 26,7 20,0 16 9 - - ENE 1015,7 16 0,0
12.07.2019 01:00:00 26,7 20,0 22 12 - - NE 1016,2 16 -
12.07.2019 00:00:00 27,2 20,0 29 16 - - ENE 1016,6 16 -
11.07.2019 23:00:00 27,2 20,6 15 8 - - ENE 1017,0 16 -
11.07.2019 22:00:00 27,2 20,6 24 13 - - ENE 1016,8 16 -
11.07.2019 21:00:00 27,8 20,6 24 13 - - ENE 1016,3 16 -
11.07.2019 20:00:00 27,8 20,0 24 13 - - E 1016,2 16 0,0
11.07.2019 19:00:00 28,3 20,0 28 15 52 28 ENE 1015,7 16 -
11.07.2019 18:00:00 29,4 20,0 28 15 - - ENE 1015,4 16 -
11.07.2019 17:00:00 30,6 18,9 31 17 - - ENE 1015,2 16 -
11.07.2019 16:00:00 31,7 19,4 28 15 - - NE 1015,2 16 -
11.07.2019 15:00:00 30,6 19,4 22 12 - - ENE 1015,7 16 -
11.07.2019 14:00:00 31,7 18,9 24 13 - - ENE 1016,0 16 0,0
11.07.2019 13:00:00 31,7 18,9 18 10 - - NE 1016,3 16 -
11.07.2019 12:00:00 31,7 20,6 21 11 - - E 1016,7 16 -
11.07.2019 11:00:00 30,0 20,6 26 14 - - ENE 1016,9 10 -
11.07.2019 10:00:00 29,4 21,1 21 11 - - ENE 1017,1 16 -
11.07.2019 09:00:00 28,3 21,1 29 16 - - ENE 1017,2 16 -
11.07.2019 08:00:00 27,8 21,7 18 10 - - ENE 1017,1 16 -
11.07.2019 07:00:00 26,1 22,8 21 11 - - ENE 1016,8 16 0,0
11.07.2019 06:00:00 25,0 22,8 8 4 - - NNE 1016,3 16 -
11.07.2019 05:00:00 24,4 22,8 9 5 - - N 1015,9 16 0,3
11.07.2019 04:00:00 25,0 22,8 11 6 - - N 1016,0 16 2,8
11.07.2019 03:00:00 26,1 21,7 11 6 - - NE 1016,1 13 0,0
11.07.2019 02:00:00 26,1 21,1 11 6 - - NNE 1016,3 16 0,0
11.07.2019 01:00:00 26,7 21,1 5 3 - - E 1016,9 16 -
11.07.2019 00:00:00 27,2 20,6 13 7 - - ENE 1017,4 16 -
10.07.2019 23:00:00 27,2 20,0 11 6 - - NE 1017,8 16 -
10.07.2019 22:00:00 27,2 20,0 9 5 - - - 1017,6 16 -
10.07.2019 21:00:00 27,8 20,6 16 9 - - NE 1017,3 16 -
10.07.2019 20:00:00 27,8 20,0 16 9 - - NNE 1017,0 16 0,0
10.07.2019 19:00:00 28,9 19,4 21 11 - - NE 1016,4 16 -

tt = temperature
td = dewpoint
ff = wind speed
fx = gusts
dd = wind direction
ppp = reduced air pressure
vv = visibility
rr = precipitation

Next stations